www.pogodaiklimat.ru

Погода и климат >> Архив погоды >> Иран >> Месджеде-Солейман


ПОГОДА в Месджеде-Солеймане

  • Прогноз погоды в Месджеде-Солеймане
  • Монитор погоды в Месджеде-Солеймане

АРХИВ ПОГОДЫ в Месджеде-Солеймане

Время (UTC), дата Ветер
(напр.,м/с)
 
Видим.   Явления Облачность Т
(С)
Тd
(С)
f
(%)
Тe
(С)
Тes
(С)
Комфортность P
(гПа)
Po
(гПа)
Тmin
(С)
Tmax
(С)
R
(мм)
R24
(мм)
S
(см)
03 14.09 СЗ 1 10 км ясно +24.5 +0.7 21 +23 +23 комфорт 1005.0 969.7 +24.1 666
06 14.09 СЗ 1 10 км ясно +34.0 +0.9 12 +31 +42 жарко 1006.1 971.0
09 14.09 З 3 10 км ясно +40.4 -3.0 6 +36 +50 очень
жарко
1004.6 969.7 666
12 14.09 З 4 10 км ясно +40.0 -0.3 8 +36 +41 очень
жарко
1004.0 969.1
15 14.09 З 2 10 км ясно +37.0 -7.9 5 +32 +32 жарко 1004.0 968.7 +40.8
18 14.09 штиль 0 10 км ясно +31.7 -2.2 11 +28 +28 жарко 1004.7 969.7
21 14.09 СВ 1 10 км ясно +28.8 -1.4 14 +26 +26 жарко 1004.2 969.4
00 15.09 СЗ 1 10 км ясно +26.3 -1.7 16 +24 +24 комфорт 1003.6 968.7
03 15.09 ЮВ 1 10 км ясно +25.0 -1.4 17 +23 +23 комфорт 1005.0 969.8 +24.9
06 15.09 З 1 10 км ясно +35.2 +2.0 12 +32 +43 жарко 1006.3 971.3
09 15.09 Ю 1 10 км ясно +41.5 -7.0 5 +37 +56 опасность
солнечного
удара
1005.7 970.9
12 15.09 ЮЗ 5 10 км ясно +42.5 -6.8 4 +38 +42 очень
жарко
1004.3 969.4
15 15.09 З 1 10 км ясно +39.6 -3.1 7 +36 +36 очень
жарко
1004.8 969.7 +43.3
18 15.09 З 1 10 км ясно +33.5 -1.1 11 +30 +30 жарко 1005.8 970.9
21 15.09 СЗ 1 10 км ясно +29.4 0.0 15 +27 +27 жарко 1005.6 970.9
00 16.09 С 1 10 км ясно +28.3 -0.4 15 +26 +26 жарко 1005.5 970.7
03 16.09 СЗ 1 10 км ясно +26.9 +0.2 17 +25 +25 комфорт 1007.1 972.0 +26.2
06 16.09 С 2 10 км ясно +35.3 +0.6 11 +32 +41 жарко 1008.3 973.3
09 16.09 Ю 2 10 км ясно +42.9 -5.8 5 +39 +55 опасность
солнечного
удара
1006.7 972.0 666
12 16.09 ЮВ 1 10 км ясно +45.6 -9.9 3 +41 +49 опасность
перегрева
1004.5 969.9
15 16.09 СЗ 2 10 км ясно +39.9 -5.1 6 +36 +36 очень
жарко
1005.1 970.1 +46.0 666
18 16.09 штиль 0 10 км ясно +34.0 +2.5 14 +31 +31 жарко 1005.8 971.0
21 16.09 штиль 0 10 км ясно +30.7 +2.4 16 +28 +28 жарко 1004.9 970.3
00 17.09 З 1 10 км ясно +28.8 +2.8 19 +27 +27 жарко 1003.5 969.1
03 17.09 С 2 10 км 4/0
[Ci fib]
+27.8 +0.5 17 +26 +26 жарко 1005.0 970.0 +27.5 666
06 17.09 СЗ 2 10 км 4/0
[Ci fib]
+36.7 +2.1 11 +33 +42 жарко 1006.1 971.3
09 17.09 ЮЗ 2 10 км 5/0
[Ci fib]
+46.1 -7.8 3 +42 +56 опасность
перегрева
1004.2 969.8
12 17.09 З 5 10 км ясно +44.9 -4.2 5 +41 +44 опасность
перегрева
1002.7 968.2
15 17.09 З 3 10 км 4/0
[Ci fib]
+41.3 -3.4 6 +37 +37 очень
жарко
1002.4 967.6 +46.7 666
18 17.09 Ю 1 10 км ясно +35.4 0.0 11 +32 +32 жарко 1003.4 968.8
21 17.09 ЮВ 2 10 км ясно +33.1 +0.4 12 +30 +30 жарко 1002.8 968.6
00 18.09 СВ 1 10 км ясно +29.6 -0.2 15 +27 +27 жарко 1002.3 967.9
03 18.09 штиль 0 10 км ясно +28.8 -0.6 15 +26 +26 жарко 1003.8 969.1 +28.7 666
06 18.09 СЗ 1 10 км ясно +37.4 +1.4 11 +34 +45 очень
жарко
1005.5 970.9
09 18.09 СЗ 2 10 км ясно +45.0 -5.7 4 +41 +57 опасность
перегрева
1004.6 970.2 666
12 18.09 З 5 10 км ясно +44.5 -2.5 5 +40 +44 очень
жарко
1003.4 968.8
15 18.09 З 2 10 км ясно +41.0 +1.3 9 +37 +37 очень
жарко
1003.6 968.9 +45.5 666
18 18.09 Ю 1 10 км ясно +36.3 +2.4 12 +33 +33 жарко 1004.5 970.0
21 18.09 ЮВ 1 10 км ясно +32.8 +2.8 15 +30 +30 жарко 1003.7 969.4
00 19.09 СЗ 1 10 км ясно +29.9 +2.1 17 +28 +28 жарко 1003.6 969.1
03 19.09 ЮВ 1 10 км ясно +28.2 +2.3 19 +26 +26 жарко 1005.2 970.3 +27.9 666
06 19.09 ЮВ 1 10 км ясно +39.2 +1.8 10 +36 +46 очень
жарко
1006.8 972.2
09 19.09 З 3 10 км ясно +43.4 +2.8 8 +40 +53 опасность
солнечного
удара
1006.0 971.4
12 19.09 З 3 10 км ясно +42.4 -1.9 6 +38 +44 очень
жарко
1004.6 969.9
15 19.09 штиль 0 10 км ясно +38.0 -14.9 3 +33 +33 жарко 1005.0 970.0 +45.0 666
18 19.09 С 1 10 км ясно +33.8 -4.5 8 +30 +30 жарко 1005.0 970.3
21 19.09 ЮВ 2 10 км ясно +31.0 +1.0 15 +28 +28 жарко 1003.7 969.1
00 20.09 ЮВ 1 10 км ясно +27.7 -6.2 10 +24 +24 комфорт 1003.3 968.5
03 20.09 С 1 10 км ясно +25.8 +0.8 19 +24 +24 комфорт 1004.3 969.1 +25.6
06 20.09 З 1 10 км ясно +36.2 -8.4 5 +32 +42 жарко 1005.5 970.6
09 20.09 ЮЗ 3 10 км ясно +40.2 +0.6 9 +37 +50 очень
жарко
1004.2 969.4
12 20.09 СЗ 2 10 км ясно +41.9 +3.4 10 +39 +45 очень
жарко
1003.0 968.3
15 20.09 СЗ 1 10 км ясно +37.8 +0.1 9 +34 +34 очень
жарко
1003.6 968.6 +42.7 666
18 20.09 З 1 10 км ясно +32.3 +0.3 13 +29 +29 жарко 1004.2 969.3
21 20.09 штиль 0 10 км ясно +15.5

 

Местоположение метеостанции Месджеде-Солейман (Иран): широта 31.98 долгота 49.27 высота над уровнем моря 320 м.

В архиве по умолчанию представлена погода в Месджеде-Солеймане за последнюю неделю. Архивные данные за месяц целиком и за предыдущие месяцы, начиная с января 2011 года, Вы можете получить, выбрав интересующий диапазон дат из раскрывающегося списка и нажав кнопку "Ввод!".


*Определитесь, кто Вы:
робот инопланетянин человек

Внимание! Время в таблицах - всемирное. Для получения местного времени необходимо прибавить поправку, которая равна 3.5 ч.

Смотрите также архив погоды в соседних городах и на ближайших метеорологических станциях:

Погода в Сафиабаде (Иран) (86 км)
Погода в Ахвазе (Иран) (92 км)
Погода в Омидийе (Иран) (140 км)
Погода в Шехре-Корде (Иран) (153 км)
Погода в Элигудерзе (Иран) (163 км)
Погода в Хорремабаде (Иран) (187 км)
Погода в Амаре (Ирак) (199 км)
Погода в Абадане (Иран) (204 км)
Погода в Басре (Ирак) (211 км)
Погода в Басре аэропорт (Ирак) (216 км)

Пояснения к столбцам:

Ветер - указаны скорость ветра в м/с - средняя за 10 мин, порывы в срок и между сроками (в фигурных скобках) и направление, откуда дует ветер: С - северный, СВ - северо-восточный, В - восточный, ЮВ - юго-восточный, Ю - южный, ЮЗ - юго-западный, З - западный, СЗ - северо-западный.
Видимость - горизонтальная дальность видимости в метрах или километрах. При видимости от 1 до 10 км при отсутствии осадков обычно наблюдается дымка, при ухудшении видимости до 1 км и менее - туман. В сухую погоду видимость может ухудшаться дымом, пылью или мглою.
Явления - указаны атмосферные явления, наблюдавшиеся в срок или в последний час перед сроком; фигурными скобками обозначены явления, наблюдавшиеся между сроками (за 1-3 часа до срока); квадратными скобками обозначены град или гололедные отложения с указанием их диаметра в мм.
Облачность - указаны через наклонную черту общая и нижняя облачность в баллах и высота нижней границы облаков в метрах; квадратными скобками обозначены формы облаков: Ci - перистые, Cs - перисто-слоистые, Cc - перисто-кучевые, Ac - высококучевые, As - высокослоистые, Sc - слоисто-кучевые, Ns - слоисто-дождевые, Cu - кучевые, Cb - кучево-дождевые. Подробнее классификацию облаков см. в Атласе облаков (PDF).
T - Температура воздуха - температура, измеренная на высоте 2 м над землей.
Td - Температура точки росы - температура, при понижении до которой содержащийся в воздухе водяной пар достигнет насыщения.
f - Относительная влажность воздуха - влажноcть воздуха, измеренная на высоте 2 м над землей.
Te - Эффективная температура - температура, которую ощущает одетый по сезону человек в тени. Характеристика душности погоды. При расчете учитывается влияние влажности воздуха и скорости ветра на теплоощущения человека.
Tes - Эффективная температура на солнце - температура, которую ощущает человек, с поправкой на солнечный нагрев. Характеристика знойности погоды. Зависит от высоты солнца над горизонтом, облачности и скорости ветра. Ночью, в пасмурную погоду, а также при ветре 12 м/с и более поправка равна нулю.
P - Атмосферное давление - приведенное к уровню моря атмосферное давление.
Po - Атмосферное давление - измеренное на уровне метеостанции атмосферное давление.
Tmin - Минимальная температура - минимум температуры воздуха на высоте 2 м над землей.
Tmax - Максимальная температура - максимум температуры воздуха на высоте 2 м над землей.
R - Количество осадков - Количество выпавших осадков за период времени, мм. При наведении курсора мыши на число - период времени, за который выпало указанное количество осадков.
R24 - Количество осадков - Количество выпавших осадков за 24 часа, мм.
S - Снежный покров - Высота снежного покрова, см. При наведении курсора мыши на число - состояние снежного покрова и степень покрытия местности в баллах.